Mineral Wells, TX

4:42 PM CDT on April 23, 2018 (GMT -0500)
Mineral Wells

Weather History for KMWL - July, 2013

Change the Weather History Date:

Wednesday, July 10, 2013

  Actual Average Record
Temperature  
Mean Temperature 88 °F -  
Max Temperature 102 °F 93 °F 104 °F (1998)
Min Temperature 75 °F 71 °F 68 °F (2005)
Cooling Degree Days 22    
Growing Degree Days 38 (Base 50)    
Moisture  
Dew Point 63 °F    
Average Humidity 44    
Maximum Humidity 69    
Minimum Humidity 25    
Precipitation  
Precipitation 0.00 in - - ()
Sea Level Pressure  
Sea Level Pressure 29.95 in    
Wind  
Wind Speed 7 mph (SSE)    
Max Wind Speed 10 mph    
Max Gust Speed 16 mph    
Visibility 10 miles    
Events      
Averages and records for this station are not official NWS values.
T = Trace of Precipitation, MM = Missing Value Source: NWS Daily Summary

Daily Weather History Graph

Daily Weather History Graph

Search for Another Location

Airport or City:

Astronomy

Jul. 10, 2013 Rise Set
Actual Time 6:32 AM CDT 8:42 PM CDT
Civil Twilight 6:04 AM CDT 9:10 PM CDT
Nautical Twilight 5:29 AM CDT 9:45 PM CDT
Astronomical Twilight 4:52 AM CDT 10:22 PM CDT
Moon 8:44 AM CDT (7/10) 10:05 PM CDT (7/10)
Length of Visible Light 15h 06m
Length of Day
14h 10m
Waxing Crescent, 5% of the Moon is Illuminated
Jul 10
Waxing Crescent
Jul 15
First Quarter
Jul 22
Full
Jul 29
Last Quarter
Aug 6
New

Hourly Weather History & Observations

Time (CDT) Temp. Heat Index Dew Point Humidity Pressure Visibility Wind Dir Wind Speed Gust Speed Precip Events Conditions
12:53 AM 82.9 °F 83.3 °F 61.0 °F 47% 29.98 in 10.0 mi SSE 6.9 mph - N/A   Clear
1:53 AM 79.0 °F - 62.1 °F 56% 29.98 in 10.0 mi SE 6.9 mph - N/A   Clear
2:53 AM 80.1 °F 81.2 °F 62.1 °F 54% 29.98 in 10.0 mi SSE 10.4 mph - N/A   Clear
3:53 AM 78.1 °F - 63.0 °F 60% 29.98 in 10.0 mi SSE 8.1 mph - N/A   Clear
4:53 AM 75.0 °F - 63.0 °F 66% 29.99 in 10.0 mi South 3.5 mph - N/A   Clear
5:53 AM 80.1 °F 82.3 °F 66.9 °F 64% 29.99 in 10.0 mi South 5.8 mph - N/A   Clear
6:53 AM 77.0 °F - 66.0 °F 69% 30.00 in 10.0 mi South 4.6 mph - N/A   Clear
7:53 AM 79.0 °F - 68.0 °F 69% 30.02 in 10.0 mi SSE 4.6 mph - N/A   Clear
8:53 AM 84.0 °F 88.4 °F 70.0 °F 63% 30.02 in 10.0 mi SSW 8.1 mph - N/A   Clear
9:53 AM 88.0 °F 92.9 °F 70.0 °F 55% 30.02 in 10.0 mi SSW 8.1 mph - N/A   Clear
10:53 AM 91.9 °F 95.9 °F 68.0 °F 45% 30.01 in 10.0 mi WSW 6.9 mph 16.1 mph N/A   Clear
11:53 AM 95.0 °F 97.9 °F 66.0 °F 38% 30.00 in 10.0 mi South 9.2 mph - N/A   Clear
12:53 PM 95.0 °F 96.0 °F 63.0 °F 34% 29.99 in 10.0 mi Calm Calm - N/A   Scattered Clouds
1:53 PM 96.1 °F 98.3 °F 64.0 °F 35% 29.97 in 10.0 mi SSE 6.9 mph - N/A   Partly Cloudy
2:53 PM 97.0 °F 97.4 °F 61.0 °F 30% 29.94 in 10.0 mi SE 9.2 mph - N/A   Scattered Clouds
3:53 PM 100.0 °F 100.7 °F 60.1 °F 27% 29.92 in 10.0 mi Variable 6.9 mph - N/A   Scattered Clouds
4:53 PM 99.0 °F 98.6 °F 59.0 °F 26% 29.89 in 10.0 mi SSE 5.8 mph - N/A   Clear
5:53 PM 100.0 °F 100.2 °F 59.0 °F 26% 29.86 in 2.5 mi SE 10.4 mph - N/A   Haze
6:08 PM 100.4 °F 100.2 °F 59.0 °F 25% 29.90 in 10.0 mi SSE 6.9 mph - N/A   Clear
6:53 PM 100.0 °F 99.7 °F 57.9 °F 25% 29.86 in 10.0 mi SE 6.9 mph - N/A   Partly Cloudy
7:53 PM 97.0 °F 96.1 °F 57.9 °F 27% 29.86 in 10.0 mi SE 8.1 mph - N/A   Clear
8:53 PM 93.0 °F 92.3 °F 59.0 °F 32% 29.85 in 10.0 mi SSE 5.8 mph - N/A   Clear
9:53 PM 90.0 °F 90.0 °F 61.0 °F 38% 29.87 in 10.0 mi SE 6.9 mph - N/A   Partly Cloudy
10:53 PM 88.0 °F 87.9 °F 61.0 °F 40% 29.88 in 10.0 mi SSE 6.9 mph - N/A   Clear
11:53 PM 84.0 °F 84.5 °F 62.1 °F 47% 29.90 in 10.0 mi SE 5.8 mph - N/A   Clear